Location: Staunton
(38.1490°N, 79.0720°W)
Time: 14:47:30
(UTC-04:00)

ISS - Pass Details

Date: 24 July 2017
Orbit: 400 x 408 km, 51.6° (Epoch: 21 July)

Event Time Altitude Azimuth Distance (km) Brightness Sun altitude
Rises 04:23:42 0° 312° (NW) 2,313 0.0 -18.2°
Reaches altitude 10° 04:25:48 10° 316° (NW) 1,453 -1.0 -17.9°
Maximum altitude 04:29:01 58° 37° (NE) 471 -3.3 -17.4°
Drops below altitude 10° 04:32:14 10° 118° (ESE) 1,449 -0.8 -17.0°
Sets 04:34:19 0° 122° (ESE) 2,306 0.2 -16.7°
